Probability
0 0 0 0 0 0 0 0 0 0 0 0 0 0 0 0 0 0 0 0 0 0 0 0 0 0 0 0 0 0 0 0 0 0 0 0 0 0 0 0 0 0 0 0
0 0 0 0 0 0 0 0 0 0 0 0 0 0 0 0 0 0 0 0 0 0 0 0 0 0 0 0 0 0 0 0 0 0 0 0 0 0 0 0 0 0 0 0
0 0 0 0 0 0 0 0 0 0 0 0 0 0 0 0 0 0 0 0 0 0 0 0 0 0 0 0 0 0 0 0 0 0 0 0 0 0 0 0 0 0 0 0
0 0 0 0 0 0 0 0 0 0 0 0 0 0 0 0 0 0 0 0 0 0 0 0 0 0 0 0 0 0 0 0 0 0 0 0 0 0 0 0 0 0 0 0
0 0 0 0 0 0 0 0 0 0 0 0 0 0 0 0 0 0 0 0 0 0 0 0 0 0 0 0 0 0 0 0 0 0 0 0 0 0 0 0 0 0 0 0
0 0 0 0 0 0 0 0 0 0 0 0 0 0 0 0 0 0 0 0 0 0 0 0 0 0 0 0 0 0 0 0 0 0 0 0 0 0 0 0 0 0 0 0
0 0 0 0 0 0 0 0 0 0 0 0 0 0 0 0 0 0 0 0 0 0 0 0 0 0 0 0 0 0 0 0 0 0 0 0 0 0 0 0 0 0 0 0
0 0 0 0 0 0 0 0 0 0 0 0 0 0 0 0 0 0 0 0 0 0 0 0 0 0 0 0 0 0 0 0 0 0 0 0 0 0 0 0 0 0 0 0
0 0 0 0 0 0 0 0 0 0 0 0 0 0 0 0 0 0 0 0 0 0 0 0 0 0 0 0 0 0 0 0 0 0 0 0 0 0 0 0 0 0 0 0
0 0 0 0 0 0 0 0 0 0 0 0 0 0 0 0 0 0 0 0 0 0 0 0 0 0 0 0 0 0 0 0 0 0 0 0 0 0 0 0 0 0 0 0
0 0 0 0 0 0 0 0 0 0 0 0 0 0 0 0 0 0 0 0 0 0 0 0 0 0 0 0 0 0 0 0 0 0 0 0 0 0 0 0 0 0 0 0
0 0 0 0 0 0 0 0 0 0 0 0 0 0 0 0 0 0 0 0 0 0 0 0 0 0 0 0 0 0 0 0 0 0 0 0 0 0 0 0 0 0 0 0
0 0 0 0 0 0 0 0 0 0 0 0 0 0 0 0 0 0 0 0 0 0 0 0 0 0 0 0 0 0 0 0 0 0 0 0 0 0 0 0 0 0 0 0
0 0 0 0 0 0 0 0 0 0 0 0 0 0 0 0 0 0 0 0 0 0 0 0 0 0 0 0 0 0 0 0 0 0 0 0 0 0 0 0 0 0 0 0
0 0 0 0 0 0 0 0 0 0 0 0 0 0 0 0 0 0 0 0 0 0 0 0 0 0 0 0 0 0 0 0 0 0 0 0 0 0 0 0 0 0 0 0
0 0 0 0 0 0 0 0 0 0 0 0 0 0 0 0 0 0 0 0 0 0 0 0 0 0 0 0 0 0 0 0 0 0 0 0 0 0 0 0 0 0 0 0
0 0 0 0 0 0 0 0 0 0 0 0 0 0 0 0 0 0 0 0 0 0 0 0 0 0 0 0 0 0 0 0 0 0 0 0 0 0 0 0 0 0 0 0
0 0 0 0 0 0 0 0 0 0 0 0 0 0 0 0 0 0 0 0 0 0 0 0 0 0 0 0 0 0 0 0 0 0 0 0 0 0 0 0 0 0 0 0
0 0 0 0 0 0 0 0 0 0 0 0 0 0 0 0 0 0 0 0 0 0 0 0 0 0 0 0 0 0 0 0 0 0 0 0 0 0 0 0 0 0 0 0
0 0 0 0 0 0 0 0 0 0 0 0 0 0 0 0 0 0 0 0 0 0 0 0 0 0 0 0 0 0 0 0 0 0 0 0 0 0 0 0 0 0 0 0
0 0 0 0 0 0 0 0 0 0 0 0 0 0 0 0 0 0 0 0 0 0 0 0 0 0 0 0 0 0 0 0 0 0 0 0 0 0 0 0 0 0 0 0
0 0 0 0 0 0 0 0 0 0 0 0 0 0 0 0 0 0 0 0 0 0 0 0 0 0 0 0 0 0 0 0 0 0 0 0 0 0 0 0 0 0 0 0
0 0 0 0 0 0 0 0 0 0 0 0 0 0 0 0 0 0 0 0 0 0 0 0 0 0 0 0 0 0 0 0 0 0 0 0 0 0 0 0 0 0 0 0
0 0 0 0 0 0 0 0 0 0 0 0 0 0 0 0 0 0 0 0 0 0 0 0 0 0 0 0 0 0 0 0 0 0 0 0 0 0 0 0 0 0 0 0
0 0 0 0 0 0 0 0 0 0 0 0 0 0 0 0 0 0 0 0 0 0 0 0 0 0 0 0 0 0 0 0 0 0 0 0 0 0 0 0 0 0 0 0
0 0 0 0 0 0 0 0 0 0 0 0 0 0 0 0 0 0 0 0 0 0 0 0 0 0 0 0 0 0 0 0 0 0 0 0 0 0 0 0 0 0 0 0
0 0 0 0 0 0 0 0 0 0 0 0 0 0 0 0 0 0 0 0 0 0 0 0 0 0 0 0 0 0 0 0 0 0 0 0 0 0 0 0 0 0 0 0
Wind_Speed
2 1 2 3 3 5 6 5 5 4 2 1 4 3 2 2 1 2 3 4 5 5 4 4 4 4 5 5 6 7 7 7 8 8 8 8 8 8 8 8 8 7 7 7
4 4 4 7 7 7 7 7 6 5 3 4 5 3 2 2 1 1 2 4 5 6 5 5 5 4 5 5 6 7 7 7 7 7 8 8 8 8 8 8 8 7 8 7
4 5 5 8 9 10 8 6 5 6 2 6 5 4 3 2 2 1 2 3 4 5 5 6 6 5 5 5 6 7 7 6 7 7 7 7 8 8 7 7 7 7 7 7
5 3 5 2 4 3 6 8 7 5 3 5 4 4 3 2 2 2 2 3 4 4 4 5 6 6 5 5 6 7 6 6 6 7 7 7 7 7 7 6 6 6 7 8
4 5 5 6 5 4 4 6 8 7 6 7 5 4 5 5 3 2 3 3 3 3 3 4 5 5 5 6 6 6 6 6 6 6 6 7 7 7 6 6 6 6 6 7
4 4 4 6 8 5 2 5 6 8 7 8 8 5 4 8 6 4 4 3 1 2 3 4 4 4 5 6 6 6 5 5 5 5 5 6 6 6 5 5 5 5 6 7
6 6 2 9 9 5 3 2 4 5 7 8 8 4 4 9 8 6 4 3 0 1 2 3 4 4 5 6 5 4 4 4 5 5 5 5 5 5 4 4 5 5 6 6
5 5 1 10 8 5 1 4 2 3 5 7 6 6 7 8 7 6 5 3 1 1 1 1 3 3 4 4 3 3 3 3 3 4 5 5 5 5 5 5 5 5 6 6
2 1 6 7 5 4 1 1 3 3 4 6 7 7 7 7 7 6 5 4 3 2 2 1 2 2 3 2 2 2 2 2 2 3 4 5 5 6 6 6 5 4 5 5
3 3 5 8 6 4 3 3 2 4 4 6 7 7 7 6 6 6 5 4 3 3 2 1 2 2 1 2 1 1 1 1 2 4 4 5 4 5 5 5 5 5 5 4
5 5 3 5 7 7 5 5 4 4 5 6 7 7 8 7 6 6 6 4 3 3 2 2 2 2 2 1 2 2 1 1 3 3 3 3 4 4 4 4 3 3 4 4
4 3 2 3 7 8 7 7 6 6 7 7 6 7 7 6 6 5 6 6 5 4 3 3 2 2 3 2 2 2 1 2 1 1 1 1 3 3 5 4 4 6 6 4
5 3 3 2 1 6 8 8 8 7 7 7 7 7 7 6 6 6 6 6 6 5 4 3 2 1 2 3 2 2 0 1 1 1 1 0 1 2 2 1 2 4 5 5
2 2 3 2 3 4 7 8 9 9 8 8 7 7 6 6 6 6 6 6 6 5 4 4 3 3 2 3 2 2 1 2 1 1 1 0 0 0 1 2 2 2 1 1
3 3 4 3 3 4 5 7 8 9 9 9 8 8 8 7 7 7 6 6 6 5 5 4 4 3 3 2 2 3 2 1 1 0 1 1 1 1 1 1 1 2 3 2
7 4 4 5 5 5 6 8 9 9 9 9 9 9 9 8 7 6 6 6 6 6 6 5 5 4 4 4 2 2 1 2 1 1 2 2 2 2 2 1 1 1 2 2
9 6 6 6 7 7 8 9 10 9 10 10 10 9 9 8 8 7 7 7 6 6 5 5 5 4 5 4 3 3 3 4 6 3 3 2 2 2 2 2 2 2 2 3
11 10 9 8 8 8 8 9 9 10 9 10 9 10 10 10 10 9 8 7 7 6 6 5 5 5 6 5 4 3 3 3 4 4 3 3 2 2 2 2 3 3 3 3
14 13 13 12 11 10 9 8 8 9 9 9 10 11 11 10 9 8 8 9 9 8 8 7 7 6 6 7 5 3 3 4 3 4 3 3 3 3 3 3 3 3 4 4
15 14 14 13 12 11 10 9 8 7 8 8 10 10 11 10 10 9 9 9 8 7 7 7 8 6 6 7 8 4 4 4 4 3 3 3 4 4 4 4 4 4 4 4
15 16 15 14 12 12 11 10 9 7 7 8 9 10 10 10 10 9 8 7 7 8 8 8 6 6 6 6 9 5 4 4 4 3 3 4 4 4 4 4 4 4 4 4
15 14 15 15 13 12 11 10 9 8 7 6 8 9 9 9 10 10 9 7 6 10 8 6 5 7 8 8 6 5 5 5 4 3 3 3 4 4 4 4 4 3 4 4
14 14 15 15 14 13 12 11 11 9 7 6 6 7 8 7 7 7 7 6 6 11 9 6 9 12 13 8 5 6 6 6 5 4 4 4 4 4 4 4 4 3 3 4
13 13 14 14 14 13 13 13 12 9 8 6 4 4 5 5 5 5 5 9 12 13 8 9 13 15 14 7 5 6 6 6 5 5 4 4 4 4 4 4 4 3 4 4
12 12 13 13 12 11 12 13 12 11 10 8 8 6 4 2 3 4 5 6 11 12 8 10 15 16 10 6 6 6 6 6 6 5 5 4 4 4 4 3 3 4 4 4
10 9 8 9 9 9 9 9 9 9 9 9 9 8 7 5 2 0 2 4 8 10 7 6 8 10 8 7 7 7 6 7 7 6 5 5 5 5 5 5 5 4 4 4
9 8 6 6 7 7 8 8 8 8 8 9 9 9 8 7 6 4 2 0 3 5 5 5 6 7 7 7 6 6 6 5 5 6 6 6 5 5 5 5 4 4 4 4
Wind_Direction
58 20 310 270 234 226 253 285 308 3 5 77 120 131 128 124 85 26 20 14 11 14 15 3 20 14 5 3 10 21 29 23 13 10 10 9 10 16 17 17 19 21 24 27
232 204 239 257 244 234 242 254 266 281 278 112 110 132 150 156 128 33 25 17 16 11 13 3 16 16 13 17 21 28 34 27 14 14 14 9 12 19 20 18 18 23 27 28
266 166 244 254 228 219 225 226 236 255 227 137 153 172 180 163 136 100 42 27 27 10 10 2 12 20 16 25 32 33 30 27 19 18 17 12 14 17 18 20 22 24 25 29
277 219 252 108 97 179 226 235 227 225 164 152 170 161 164 164 152 127 89 49 39 9 0 1 14 16 9 35 42 37 26 24 24 21 19 14 14 14 17 21 22 24 25 25
274 288 272 148 159 171 215 251 228 213 189 168 166 176 193 177 155 114 92 75 51 352 344 14 20 8 8 35 45 38 26 22 24 21 18 17 15 12 14 21 23 24 29 30
286 283 299 105 125 135 216 260 204 191 183 172 175 212 200 159 146 130 111 97 57 332 1 20 14 2 19 38 42 34 23 22 20 18 21 22 15 11 11 17 23 32 38 36
264 272 288 117 124 140 217 27 109 165 173 175 188 192 123 137 139 134 130 127 128 333 24 15 8 10 31 43 41 34 25 24 19 13 20 29 19 14 15 17 25 35 44 43
227 252 197 134 150 197 233 110 144 179 175 173 166 143 128 132 136 142 147 153 177 305 359 29 24 12 45 52 40 34 27 26 32 28 24 27 20 17 18 17 27 34 39 41
298 30 118 171 196 226 297 214 167 188 179 167 165 161 154 155 156 162 168 166 175 232 255 186 91 32 39 54 31 14 18 39 47 47 53 40 26 28 23 17 23 30 32 34
292 267 191 199 218 218 216 235 190 184 178 173 175 171 167 174 173 170 171 170 177 221 249 198 127 110 69 53 353 333 5 49 72 55 54 57 41 34 36 19 15 19 29 31
256 261 239 200 210 214 200 209 204 191 183 183 182 182 178 184 185 174 166 167 178 217 244 234 168 157 132 89 318 313 347 69 89 89 71 78 79 47 44 56 37 18 12 22
248 265 235 224 192 200 200 201 203 198 190 187 188 189 186 187 183 175 171 168 181 211 234 242 190 163 148 142 273 301 29 49 71 106 104 106 127 109 50 63 63 56 47 49
260 319 347 25 145 194 202 198 199 202 196 190 191 192 192 189 182 179 181 182 189 199 213 231 208 193 168 157 227 293 327 85 56 68 88 8 123 142 151 123 55 44 48 57
359 339 285 255 232 211 210 199 198 204 201 194 192 191 192 195 191 189 193 190 187 196 207 214 210 211 192 163 193 254 241 137 172 208 213 233 84 102 140 155 165 172 132 81
304 270 268 273 248 219 207 197 199 204 203 198 193 194 195 198 199 195 194 187 181 193 211 220 216 206 173 164 213 237 235 179 173 202 229 217 202 213 144 119 143 143 147 174
319 301 279 268 256 237 220 211 210 210 206 202 197 197 198 199 199 192 188 188 191 198 205 215 218 199 170 172 207 237 213 135 163 252 255 222 211 206 182 181 178 135 134 142
341 326 304 282 267 252 237 228 222 217 210 206 202 196 196 196 197 196 193 192 194 200 205 209 206 187 170 174 196 221 219 187 189 220 251 250 227 212 191 183 185 166 137 136
340 331 322 306 290 274 257 244 234 225 217 209 199 196 198 201 202 199 194 190 193 201 212 213 196 184 177 181 196 223 240 210 190 206 219 227 225 221 209 199 199 183 158 167
348 342 334 326 317 302 285 266 245 232 222 206 200 202 203 204 201 198 195 196 200 205 204 203 203 196 186 185 189 203 240 249 223 207 206 198 203 227 226 216 210 198 181 172
351 345 337 329 321 313 303 292 273 244 225 211 204 203 205 204 200 198 200 205 201 193 188 190 187 193 198 185 178 197 227 244 243 222 207 202 205 218 223 216 210 204 196 188
351 347 342 335 328 321 312 302 289 267 239 217 210 208 207 204 199 198 199 208 197 181 183 187 186 185 193 178 173 194 215 236 240 232 220 213 217 223 226 225 214 206 204 197
351 348 345 341 335 328 322 315 305 289 264 236 217 211 208 206 202 203 202 195 183 179 178 179 186 190 187 170 175 194 207 226 237 232 227 223 222 227 230 229 223 213 206 201
347 346 345 343 340 335 334 331 325 314 291 262 235 219 214 209 201 200 206 190 178 180 182 185 190 192 186 181 184 193 203 215 225 228 225 223 225 225 227 230 226 219 213 205
343 344 345 345 344 346 345 342 336 333 329 313 283 250 226 212 208 202 193 184 185 180 186 192 189 187 183 189 193 198 205 212 216 218 223 226 230 233 231 227 223 221 219 218
338 340 344 346 349 347 343 341 342 345 347 344 337 325 297 246 209 196 187 181 180 176 185 190 186 184 185 196 200 204 205 208 210 210 212 217 223 230 236 236 229 225 222 221
329 330 334 339 345 343 343 346 348 351 354 351 343 340 337 337 331 197 174 170 172 178 182 180 184 189 198 202 207 210 208 204 205 207 212 216 225 225 223 227 235 230 227 225
319 322 325 330 338 342 342 343 345 349 354 350 339 340 344 351 354 355 359 56 160 176 189 190 187 190 198 203 209 215 214 207 197 194 198 207 214 221 224 225 222 223 223 224